FW3684 Weather Reports


Display with metric or nautical units.
time (UTC)temp
F
wind
direction
speed
MPH
gust
MPH
rain 1hr
in
rain 24hr
in
rain mn
in
humidity
%
barometer
mb
20181219121016 28 63 0.0 2.0 0.00 0.00 0.00 90 1022.9
20181219120515 28 60 1.0 2.0 0.00 0.00 0.00 91 1022.8
20181219120033 28 68 1.0 3.0 0.00 0.00 0.00 91 1022.9
20181219115512 28 62 1.0 3.0 0.00 0.00 0.00 91 1023.0
20181219115011 27 39 2.0 3.0 0.00 0.00 0.00 92 1023.0
20181219114522 27 50 1.0 2.0 0.00 0.00 0.00 91 1023.0
20181219114011 28 78 1.0 1.0 0.00 0.00 0.00 91 1022.9
20181219113509 28 51 0.0 0.0 0.00 0.00 0.00 91 1023.0
20181219113025 28 51 0.0 0.0 0.00 0.00 0.00 91 1022.7
20181219112510 28 51 0.0 1.0 0.00 0.00 0.00 91 1022.8
20181219112013 28 51 0.0 2.0 0.00 0.00 0.00 92 1022.7
20181219111515 28 53 1.0 3.0 0.00 0.00 0.00 92 1022.7
20181219111013 27 55 2.0 3.0 0.00 0.00 0.00 92 1022.6
20181219110508 28 70 0.0 0.0 0.00 0.00 0.00 92 1022.8
20181219110027 28 86 0.0 0.0 0.00 0.00 0.00 91 1022.7
20181219105505 28 86 0.0 0.0 0.00 0.00 0.00 90 1022.8
20181219105005 28 86 0.0 0.0 0.00 0.00 0.00 91 1022.7
20181219104507 28 86 0.0 0.0 0.00 0.00 0.00 90 1022.7
20181219104005 28 86 0.0 0.0 0.00 0.00 0.00 90 1022.5
20181219103509 28 86 0.0 0.0 0.00 0.00 0.00 90 1022.5
20181219103008 28 87 0.0 0.0 0.00 0.00 0.00 90 1022.3
20181219102503 28 34 0.0 1.0 0.00 0.00 0.00 90 1022.2
20181219102002 28 34 0.0 1.0 0.00 0.00 0.00 90 1022.3
20181219101514 29 34 0.0 0.0 0.00 0.00 0.00 90 1022.3
20181219101002 29 34 0.0 2.0 0.00 0.00 0.00 90 1022.3
20181219100506 29 34 0.0 3.0 0.00 0.00 0.00 91 1022.2
20181219100003 28 34 2.0 3.0 0.00 0.00 0.00 91 1022.1
20181219095504 28 63 1.0 2.0 0.00 0.00 0.00 90 1022.1
20181219095001 29 103 0.0 1.0 0.00 0.00 0.00 90 1022.1
20181219094630 29 103 0.0 1.0 0.00 0.00 0.00 89 1022.2
20181219094105 29 41 0.0 2.0 0.00 0.00 0.00 89 1022.4
20181219093600 29 42 0.0 2.0 0.00 0.00 0.00 89 1022.3
20181219093151 29 41 1.0 3.0 0.00 0.00 0.00 89 1022.2
20181219092559 29 49 2.0 3.0 0.00 0.00 0.00 90 1022.3
20181219092059 29 61 0.0 4.0 0.00 0.00 0.00 90 1022.2
20181219091715 29 36 2.0 4.0 0.00 0.00 0.00 90 1022.4
20181219091058 29 79 1.0 3.0 0.00 0.00 0.00 89 1022.4
20181219090558 29 46 1.0 3.0 0.00 0.00 0.00 89 1022.4
20181219090226 29 35 2.0 3.0 0.00 0.00 0.00 89 1022.5
20181219085602 29 46 0.0 3.0 0.00 0.00 0.00 89 1022.5
20181219085102 29 39 1.0 3.0 0.00 0.00 0.00 89 1022.4
20181219084859 29 34 2.0 4.0 0.00 0.00 0.00 90 1022.5
20181219084056 29 36 3.0 4.0 0.00 0.00 0.00 89 1022.6
20181219083557 29 92 1.0 3.0 0.00 0.00 0.00 89 1022.6
20181219083122 29 71 1.0 3.0 0.00 0.00 0.00 89 1022.7
20181219082554 29 77 1.0 2.0 0.00 0.00 0.00 89 1022.8
20181219082053 29 83 0.0 2.0 0.00 0.00 0.00 89 1022.8
20181219081652 29 78 1.0 3.0 0.00 0.00 0.00 90 1022.7
20181219081057 29 53 2.0 3.0 0.00 0.00 0.00 91 1022.7
20181219080555 29 39 2.0 3.0 0.00 0.00 0.00 91 1022.8
20181219080118 29 51 1.0 2.0 0.00 0.00 0.00 90 1022.7
20181219075549 29 60 0.0 1.0 0.00 0.00 0.00 91 1022.7
20181219075055 29 60 0.0 2.0 0.00 0.00 0.00 90 1022.8
20181219074710 29 60 0.0 2.0 0.00 0.00 0.00 91 1022.8
20181219074049 29 274 0.0 0.0 0.00 0.00 0.00 91 1022.7
20181219073553 29 274 0.0 1.0 0.00 0.00 0.00 90 1022.7
20181219073127 30 274 0.0 1.0 0.00 0.00 0.00 90 1022.8
20181219072551 30 274 0.0 1.0 0.00 0.00 0.00 90 1022.7
20181219072044 30 239 0.0 1.0 0.00 0.00 0.00 88 1022.5
20181219071647 30 94 0.0 1.0 0.00 0.00 0.00 88 1022.5
20181219071049 31 94 0.0 2.0 0.00 0.00 0.00 88 1022.4
20181219070543 31 56 1.0 2.0 0.00 0.00 0.00 87 1022.5
20181219070108 31 53 1.0 2.0 0.00 0.00 0.00 87 1022.2
20181219065543 31 56 0.0 2.0 0.00 0.00 0.00 86 1022.4
20181219065046 32 54 1.0 2.0 0.00 0.00 0.00 86 1022.4
20181219064735 32 63 1.0 2.0 0.00 0.00 0.00 86 1022.4
20181219064049 32 63 1.0 2.0 0.00 0.00 0.00 87 1022.2
20181219063544 31 67 1.0 4.0 0.00 0.00 0.00 88 1022.2
20181219063106 31 86 2.0 4.0 0.00 0.00 0.00 89 1022.3
20181219062545 31 80 1.0 2.0 0.00 0.00 0.00 89 1022.4
20181219062039 31 82 1.0 2.0 0.00 0.00 0.00 87 1022.5
20181219061633 31 62 0.0 1.0 0.00 0.00 0.00 87 1022.4
20181219061040 31 58 1.0 2.0 0.00 0.00 0.00 87 1022.5
20181219060539 31 65 1.0 2.0 0.00 0.00 0.00 88 1022.5
20181219060101 31 77 1.0 2.0 0.00 0.00 0.00 88 1022.4
20181219055540 31 60 1.0 1.0 0.00 0.00 0.00 88 1022.5
20181219055036 31 57 1.0 1.0 0.00 0.00 0.00 88 1022.4
20181219054606 31 56 0.0 2.0 0.00 0.00 0.00 87 1022.3
20181219054036 31 56 0.0 2.0 0.00 0.00 0.00 88 1022.4
20181219053535 31 56 1.0 2.0 0.00 0.00 0.00 88 1022.4
20181219053125 31 98 0.0 1.0 0.00 0.00 0.00 89 1022.5
20181219052537 32 98 0.0 1.0 0.00 0.00 0.00 88 1022.6
20181219052037 32 100 0.0 1.0 0.00 0.00 0.00 86 1022.5
20181219051616 32 84 0.0 1.0 0.00 0.00 0.00 86 1022.5
20181219051034 32 84 0.0 2.0 0.00 0.00 0.00 87 1022.4
20181219050536 32 85 1.0 2.0 0.00 0.00 0.00 88 1022.3
20181219050148 32 86 1.0 2.0 0.00 0.00 0.00 87 1022.3
20181219045534 32 56 1.0 2.0 0.00 0.00 0.00 86 1022.3
20181219045030 32 49 1.0 3.0 0.00 0.00 0.00 86 1022.4
20181219044611 32 46 2.0 3.0 0.00 0.00 0.00 87 1022.4
20181219044030 33 44 2.0 4.0 0.00 0.00 0.00 86 1022.5
20181219043528 33 73 2.0 4.0 0.00 0.00 0.00 85 1022.4
20181219043050 33 70 1.0 3.0 0.00 0.00 0.00 86 1022.6
20181219042530 33 63 1.0 3.0 0.00 0.00 0.00 86 1022.6
20181219042027 32 49 2.0 3.0 0.00 0.00 0.00 87 1022.6
20181219041555 32 63 1.0 1.0 0.00 0.00 0.00 86 1022.7
20181219041029 33 56 0.0 1.0 0.00 0.00 0.00 86 1022.8
20181219040525 33 33 0.0 1.0 0.00 0.00 0.00 85 1022.8
20181219040112 33 33 0.0 3.0 0.00 0.00 0.00 86 1022.8
20181219035531 33 33 0.0 4.0 0.00 0.00 0.00 85 1022.7
20181219035024 33 39 2.0 4.0 0.00 0.00 0.00 86 1022.7
20181219034602 33 77 1.0 2.0 0.00 0.00 0.00 85 1022.6
20181219034027 33 94 0.0 2.0 0.00 0.00 0.00 85 1022.6
20181219033525 34 94 1.0 3.0 0.00 0.00 0.00 85 1022.5
20181219033033 34 98 1.0 4.0 0.00 0.00 0.00 85 1022.6
20181219032527 34 38 2.0 5.0 0.00 0.00 0.00 85 1022.5
20181219032020 34 37 3.0 5.0 0.00 0.00 0.00 85 1022.4
20181219031523 34 81 1.0 3.0 0.00 0.00 0.00 83 1022.4
20181219031019 34 90 1.0 3.0 0.00 0.00 0.00 83 1022.3
20181219030517 34 36 2.0 3.0 0.00 0.00 0.00 84 1022.4
20181219030104 34 70 1.0 4.0 0.00 0.00 0.00 83 1022.2
20181219025521 35 70 1.0 4.0 0.00 0.00 0.00 83 1022.2
20181219025016 34 39 2.0 3.0 0.00 0.00 0.00 84 1022.2
20181219024546 35 72 1.0 3.0 0.00 0.00 0.00 84 1022.1
20181219024018 35 83 1.0 3.0 0.00 0.00 0.00 84 1022.1
20181219023514 35 70 1.0 3.0 0.00 0.00 0.00 83 1022.2
20181219023032 35 82 1.0 2.0 0.00 0.00 0.00 84 1022.1
20181219022512 35 84 1.0 2.0 0.00 0.00 0.00 83 1022.1
20181219022011 35 52 1.0 2.0 0.00 0.00 0.00 82 1022.0
20181219021524 35 36 1.0 2.0 0.00 0.00 0.00 83 1022.0
20181219021011 35 88 1.0 2.0 0.00 0.00 0.00 83 1021.9
20181219020514 36 88 1.0 3.0 0.00 0.00 0.00 83 1021.9
20181219020037 36 82 1.0 4.0 0.00 0.00 0.00 82 1021.8
20181219015514 36 34 2.0 4.0 0.00 0.00 0.00 83 1021.7
20181219015010 36 58 1.0 4.0 0.00 0.00 0.00 83 1021.7
20181219014525 36 34 3.0 4.0 0.00 0.00 0.00 83 1021.7
20181219014014 36 68 1.0 3.0 0.00 0.00 0.00 82 1021.6
20181219013508 36 84 1.0 3.0 0.00 0.00 0.00 80 1021.8
20181219013047 37 38 1.0 3.0 0.00 0.00 0.00 80 1021.7
20181219012507 37 62 0.0 3.0 0.00 0.00 0.00 80 1021.5
20181219012011 37 32 2.0 3.0 0.00 0.00 0.00 80 1021.5
20181219011521 37 41 2.0 3.0 0.00 0.00 0.00 81 1021.3
20181219011010 37 65 1.0 4.0 0.00 0.00 0.00 80 1021.4
20181219010509 37 60 2.0 4.0 0.00 0.00 0.00 80 1021.3
20181219010015 37 68 1.0 2.0 0.00 0.00 0.00 80 1021.3
20181219005506 38 91 1.0 3.0 0.00 0.00 0.00 79 1021.2
20181219005005 38 64 1.0 3.0 0.00 0.00 0.00 78 1021.1
20181219004511 38 82 1.0 2.0 0.00 0.00 0.00 79 1021.1
20181219004008 38 80 1.0 2.0 0.00 0.00 0.00 78 1021.1
20181219003507 39 108 1.0 3.0 0.00 0.00 0.00 78 1021.1
20181219003011 39 97 1.0 4.0 0.00 0.00 0.00 77 1021.0
20181219002505 39 32 3.0 4.0 0.00 0.00 0.00 77 1021.0
20181219002004 39 116 2.0 3.0 0.00 0.00 0.00 77 1020.9
20181219001516 40 110 1.0 3.0 0.00 0.00 0.00 78 1020.9
20181219001003 40 83 0.0 2.0 0.00 0.00 0.00 75 1020.8
20181219000507 40 119 0.0 3.0 0.00 0.00 0.00 74 1020.8
20181219000017 40 34 2.0 3.0 0.00 0.00 0.00 74 1020.6
20181218235502 40 105 1.0 3.0 0.00 0.00 0.00 77 1020.5
20181218235005 41 47 1.0 3.0 0.00 0.00 0.00 74 1020.6
20181218234503 41 38 2.0 3.0 0.00 0.00 0.00 72 1020.5
20181218234006 41 76 1.0 2.0 0.00 0.00 0.00 71 1020.4
20181218233503 41 106 1.0 2.0 0.00 0.00 0.00 75 1020.4
20181218233143 42 354 1.0 2.0 0.00 0.00 0.00 70 1020.4
20181218232600 42 103 0.0 2.0 0.00 0.00 0.00 70 1020.3
20181218232105 43 11 1.0 2.0 0.00 0.00 0.00 69 1020.3
20181218231808 43 127 0.0 2.0 0.00 0.00 0.00 68 1020.2
20181218231059 44 126 0.0 2.0 0.00 0.00 0.00 67 1020.2
20181218230600 44 24 1.0 3.0 0.00 0.00 0.00 64 1019.9
20181218230217 45 136 0.0 3.0 0.00 0.00 0.00 64 1020.0
20181218225601 45 37 1.0 2.0 0.00 0.00 0.00 62 1020.0
20181218225504 45 25 1.0 2.0 0.00 0.00 0.00 62 1019.9
20181218225103 46 101 0.0 2.0 0.00 0.00 0.00 61 1019.9
20181218224658 47 46 0.0 2.0 0.00 0.00 0.00 62 1019.9
20181218224102 47 132 0.0 3.0 0.00 0.00 0.00 62 1019.9
20181218223601 48 84 0.0 3.0 0.00 0.00 0.00 58 1019.8
20181218223322 48 120 0.0 2.0 0.00 0.00 0.00 56 1019.7
20181218222101 50 15 1.0 2.0 0.00 0.00 0.00 51 1019.7
20181218221647 51 252 0.0 1.0 0.00 0.00 0.00 51 1019.6
20181218221059 52 144 0.0 2.0 0.00 0.00 0.00 53 1019.4
20181218220600 53 144 0.0 2.0 0.00 0.00 0.00 47 1019.4
20181218220127 54 8 0.0 2.0 0.00 0.00 0.00 49 1019.4
20181218215558 55 32 0.0 1.0 0.00 0.00 0.00 39 1019.3
20181218215059 56 255 0.0 3.0 0.00 0.00 0.00 45 1019.3
20181218214637 56 353 1.0 3.0 0.00 0.00 0.00 40 1019.5
20181218214056 56 117 1.0 3.0 0.00 0.00 0.00 35 1019.5
20181218213555 56 91 1.0 2.0 0.00 0.00 0.00 35 1019.6
20181218213141 56 102 0.0 4.0 0.00 0.00 0.00 35 1019.4
20181218212555 55 142 1.0 5.0 0.00 0.00 0.00 36 1019.5
20181218212058 55 145 1.0 5.0 0.00 0.00 0.00 39 1019.3
20181218211702 55 57 0.0 3.0 0.00 0.00 0.00 38 1019.3
20181218211055 56 276 1.0 4.0 0.00 0.00 0.00 43 1019.4
20181218210553 55 37 1.0 4.0 0.00 0.00 0.00 37 1019.4
20181218210202 56 30 0.0 0.0 0.00 0.00 0.00 38 1019.4
20181218205555 56 332 0.0 0.0 0.00 0.00 0.00 37 1019.5
20181218205056 57 146 0.0 1.0 0.00 0.00 0.00 35 1019.4
20181218204705 57 347 0.0 3.0 0.00 0.00 0.00 34 1019.4
20181218204053 57 120 1.0 3.0 0.00 0.00 0.00 33 1019.4
20181218203554 58 111 0.0 2.0 0.00 0.00 0.00 32 1019.3
20181218203148 57 124 0.0 2.0 0.00 0.00 0.00 34 1019.3
20181218202552 57 127 0.0 2.0 0.00 0.00 0.00 33 1019.2
20181218202054 58 134 1.0 3.0 0.00 0.00 0.00 33 1019.2
20181218201648 58 137 1.0 3.0 0.00 0.00 0.00 33 1019.2
20181218201054 58 118 1.0 4.0 0.00 0.00 0.00 32 1019.1
20181218200551 59 122 1.0 4.0 0.00 0.00 0.00 30 1019.0
20181218200146 60 135 1.0 4.0 0.00 0.00 0.00 30 1019.0
20181218195554 61 139 1.0 7.0 0.00 0.00 0.00 29 1018.9
20181218195056 61 114 2.0 7.0 0.00 0.00 0.00 29 1018.9
20181218194740 61 147 1.0 6.0 0.00 0.00 0.00 29 1018.9
20181218194048 61 231 1.0 6.0 0.00 0.00 0.00 29 1018.8
20181218193553 60 225 0.0 4.0 0.00 0.00 0.00 32 1018.8
20181218193157 60 120 1.0 5.0 0.00 0.00 0.00 29 1018.8
20181218192548 60 185 2.0 5.0 0.00 0.00 0.00 30 1018.8
20181218192050 60 140 1.0 3.0 0.00 0.00 0.00 29 1018.8
20181218191738 60 214 1.0 4.0 0.00 0.00 0.00 29 1018.9
20181218191052 60 134 2.0 8.0 0.00 0.00 0.00 29 1018.9
20181218190546 60 122 4.0 7.0 0.00 0.00 0.00 28 1019.0
20181218190128 61 190 2.0 5.0 0.00 0.00 0.00 29 1018.9
20181218185550 60 134 1.0 6.0 0.00 0.00 0.00 29 1019.0
20181218185045 60 143 0.0 6.0 0.00 0.00 0.00 30 1019.1
20181218184630 60 219 2.0 6.0 0.00 0.00 0.00 32 1019.1
20181218184046 59 93 2.0 8.0 0.00 0.00 0.00 31 1019.1
20181218183545 59 239 4.0 8.0 0.00 0.00 0.00 29 1019.2
20181218183202 59 212 2.0 7.0 0.00 0.00 0.00 32 1019.2
20181218182543 59 243 3.0 8.0 0.00 0.00 0.00 30 1019.3
20181218182048 59 226 2.0 8.0 0.00 0.00 0.00 28 1019.3
20181218181041 58 257 1.0 9.0 0.00 0.00 0.00 25 1019.4
20181218180543 59 272 3.0 6.0 0.00 0.00 0.00 26 1019.4
20181218180123 59 103 2.0 6.0 0.00 0.00 0.00 28 1019.5
20181218175541 58 250 2.0 5.0 0.00 0.00 0.00 25 1019.6
20181218175040 58 131 2.0 6.0 0.00 0.00 0.00 25 1019.6
20181218174800 58 200 3.0 7.0 0.00 0.00 0.00 25 1019.7
20181218174039 58 229 3.0 7.0 0.00 0.00 0.00 23 1019.8
20181218173538 58 217 4.0 6.0 0.00 0.00 0.00 23 1019.8
20181218173121 58 199 3.0 5.0 0.00 0.00 0.00 25 1019.9
20181218172538 58 267 2.0 4.0 0.00 0.00 0.00 26 1019.9
20181218172036 58 269 0.0 4.0 0.00 0.00 0.00 29 1020.1
20181218171647 57 132 1.0 4.0 0.00 0.00 0.00 29 1020.1
20181218171037 57 153 1.0 4.0 0.00 0.00 0.00 29 1020.3
20181218170049 55 165 2.0 5.0 0.00 0.00 0.00 28 1020.7
20181218165530 55 152 2.0 5.0 0.00 0.00 0.00 30 1020.6
20181218165031 54 206 2.0 7.0 0.00 0.00 0.00 32 1020.8
20181218164609 53 193 2.0 7.0 0.00 0.00 0.00 34 1020.9
20181218164031 53 168 2.0 7.0 0.00 0.00 0.00 34 1020.9
20181218163526 53 247 1.0 8.0 0.00 0.00 0.00 37 1021.0
20181218163049 52 264 3.0 8.0 0.00 0.00 0.00 38 1021.1
20181218162523 52 261 5.0 8.0 0.00 0.00 0.00 38 1021.1
20181218162027 52 248 3.0 7.0 0.00 0.00 0.00 41 1021.1
20181218161548 52 278 2.0 7.0 0.00 0.00 0.00 41 1021.2
20181218161026 52 235 1.0 3.0 0.00 0.00 0.00 42 1021.2
20181218160520 51 129 0.0 3.0 0.00 0.00 0.00 44 1021.3
20181218160038 50 86 0.0 4.0 0.00 0.00 0.00 46 1021.3
20181218155521 50 122 2.0 4.0 0.00 0.00 0.00 45 1021.5
20181218155019 49 103 1.0 3.0 0.00 0.00 0.00 46 1021.7
20181218154546 48 9 1.0 5.0 0.00 0.00 0.00 48 1021.5
20181218154020 48 86 1.0 3.0 0.00 0.00 0.00 51 1021.6
20181218153518 47 89 1.0 3.0 0.00 0.00 0.00 52 1021.6
20181218153022 46 87 2.0 7.0 0.00 0.00 0.00 53 1021.7
20181218152513 46 58 5.0 7.0 0.00 0.00 0.00 55 1021.7
20181218152019 46 49 2.0 5.0 0.00 0.00 0.00 55 1021.8
20181218151516 45 35 1.0 3.0 0.00 0.00 0.00 58 1021.8
20181218151015 45 90 1.0 4.0 0.00 0.00 0.00 60 1021.9
20181218150517 44 94 1.0 5.0 0.00 0.00 0.00 61 1021.9
20181218150018 44 56 3.0 6.0 0.00 0.00 0.00 59 1022.0
20181218145514 44 49 4.0 6.0 0.00 0.00 0.00 59 1021.9
20181218145012 43 15 0.0 5.0 0.00 0.00 0.00 62 1022.0
20181218144546 42 14 1.0 5.0 0.00 0.00 0.00 66 1022.0
20181218144011 42 84 2.0 3.0 0.00 0.00 0.00 69 1022.0
20181218143512 42 95 2.0 5.0 0.00 0.00 0.00 69 1021.9
20181218143016 42 72 2.0 5.0 0.00 0.00 0.00 67 1022.0
20181218142512 42 84 0.0 2.0 0.00 0.00 0.00 64 1022.0
20181218142014 41 129 1.0 4.0 0.00 0.00 0.00 69 1021.9
20181218141525 41 162 1.0 6.0 0.00 0.00 0.00 67 1022.0
20181218141009 41 45 2.0 6.0 0.00 0.00 0.00 64 1022.0
20181218140513 40 77 3.0 6.0 0.00 0.00 0.00 64 1021.9
20181218140015 41 119 2.0 3.0 0.00 0.00 0.00 65 1021.8
20181218135507 42 92 2.0 4.0 0.00 0.00 0.00 65 1021.9
20181218135007 42 100 2.0 7.0 0.00 0.00 0.00 62 1021.6
20181218134510 42 35 3.0 7.0 0.00 0.00 0.00 61 1021.4
20181218134005 42 286 1.0 5.0 0.00 0.00 0.00 60 1021.3
20181218133504 41 44 1.0 12.0 0.00 0.00 0.00 61 1021.1
20181218133016 40 242 5.0 12.0 0.00 0.00 0.00 63 1020.9
20181218132504 37 66 1.0 4.0 0.00 0.00 0.00 69 1020.7
20181218131710 38 167 1.0 5.0 0.00 0.00 0.00 65 1020.4
20181218131101 38 46 1.0 4.0 0.00 0.00 0.00 67 1020.4
20181218130601 38 84 0.0 4.0 0.00 0.00 0.00 66 1020.1
20181218130311 38 52 2.0 4.0 0.00 0.00 0.00 64 1020.0
20181218125600 39 45 1.0 8.0 0.00 0.00 0.00 65 1019.9
20181218125101 39 283 2.0 6.0 0.00 0.00 0.00 63 1019.5
20181218124642 37 236 1.0 5.0 0.00 0.00 0.00 70 1019.5
20181218124059 37 266 0.0 4.0 0.00 0.00 0.00 68 1019.5
20181218123601 36 69 1.0 3.0 0.00 0.00 0.00 71 1019.5
20181218123147 36 37 1.0 6.0 0.00 0.00 0.00 72 1019.3
20181218122558 37 56 3.0 6.0 0.00 0.00 0.00 70 1019.3
20181218122053 37 181 0.0 3.0 0.00 0.00 0.00 68 1019.1
20181218121703 38 11 0.0 3.0 0.00 0.00 0.00 69 1019.0